Theta_e
334 327 324 320 310 313 311 313 318 317 319 323 323 321 321 324 322 325 354 356 351 355 364 362 364 365 366 366 365 363 362 362 362 362 362 362 362 363 363 363 363 359 356 354 355 355 355 355 355
323 320 320 318 307 307 311 317 315 319 321 322 323 322 323 327 339 344 350 353 354 358 364 361 363 364 365 363 365 363 363 363 362 362 362 362 362 362 363 363 362 358 354 353 354 355 355 355 355
321 319 313 312 309 306 310 315 318 320 320 320 320 323 324 331 342 346 354 355 356 359 362 362 363 363 364 365 364 364 363 363 363 362 362 362 362 362 361 361 361 357 354 353 354 356 355 354 354
317 314 313 307 307 312 313 315 317 317 320 320 320 318 326 346 345 351 356 354 356 356 359 361 362 362 363 363 364 363 363 363 362 362 362 361 361 361 360 360 360 359 354 352 354 355 355 353 352
316 313 303 302 304 312 314 315 316 314 316 317 319 317 322 342 353 355 355 354 354 355 357 361 361 362 362 362 362 362 362 361 361 361 361 361 360 360 359 359 358 356 354 353 353 354 354 353 353
308 309 301 299 303 307 312 316 315 314 315 316 316 319 323 351 352 354 354 354 354 354 357 358 361 361 361 361 361 360 360 359 359 360 359 359 359 359 358 357 356 354 353 352 352 353 353 352 351
305 304 300 302 302 304 308 313 311 314 315 315 319 315 326 344 354 356 353 354 354 355 355 357 356 360 360 360 359 359 358 358 358 358 358 358 358 357 355 354 352 352 352 351 350 350 348 347 344
308 305 300 301 300 301 308 309 312 311 311 320 320 318 325 347 356 357 353 352 353 353 353 353 353 353 355 356 359 359 358 358 358 358 358 358 357 355 353 353 351 350 350 349 348 345 343 342 342
309 300 298 300 301 302 306 306 311 314 312 315 319 321 336 349 355 354 350 350 351 349 351 351 349 351 351 351 355 358 358 358 358 357 357 354 349 352 353 351 350 349 349 348 347 346 345 344 345
304 300 301 304 305 303 306 306 307 308 310 311 315 328 338 347 351 350 348 347 348 347 348 349 350 350 349 346 352 352 351 351 350 350 354 350 349 350 347 349 349 348 349 349 348 347 346 344 336
303 299 304 303 305 305 304 304 307 306 305 311 313 319 330 336 342 350 350 350 348 349 349 348 351 353 350 346 347 346 346 346 347 350 352 351 348 351 348 346 347 346 347 342 346 345 342 339 342
299 303 303 303 304 304 303 305 304 306 307 312 314 317 317 318 328 338 349 350 350 349 349 349 352 354 354 349 348 346 344 344 345 348 354 350 349 349 346 343 343 346 343 343 345 341 343 343 342
299 301 303 304 304 304 305 303 303 304 308 310 312 313 313 315 319 321 334 351 351 349 350 350 352 355 355 355 351 351 349 349 349 350 353 349 348 348 347 346 344 344 342 342 341 341 341 341 341
302 302 302 303 304 305 302 302 303 304 308 308 309 310 312 315 317 321 328 344 350 351 352 352 351 356 357 356 358 354 354 353 352 351 353 356 352 352 348 349 347 345 344 342 341 341 341 341 340
302 299 303 304 305 303 305 300 301 306 307 306 308 310 312 314 317 319 326 342 352 351 353 353 353 355 357 356 357 357 356 355 354 354 357 357 358 357 357 351 350 348 349 350 349 348 347 345 343
302 302 298 303 305 306 303 298 306 309 307 305 307 308 310 313 317 321 326 343 353 354 353 354 352 354 357 357 356 355 354 355 355 355 356 359 359 359 358 353 352 354 355 352 350 350 348 347 345
301 296 297 299 305 303 302 301 307 309 308 307 308 309 310 313 318 323 328 343 353 354 354 354 354 349 355 359 357 356 361 356 355 356 356 357 357 357 357 354 354 358 355 354 352 350 350 345 345
296 296 298 297 303 302 302 302 306 310 309 309 310 311 311 312 318 322 336 344 351 355 350 353 355 354 351 358 358 355 355 354 355 353 353 352 354 354 355 355 357 357 354 350 348 350 349 348 347
299 298 297 301 304 302 302 303 306 309 310 309 310 311 312 313 319 323 333 342 346 347 352 346 353 354 356 353 351 351 350 352 352 354 355 355 355 356 356 353 355 356 351 351 353 352 350 349 352
299 298 298 301 303 302 302 302 306 308 309 310 311 312 313 314 319 322 324 329 337 346 353 351 346 345 348 351 349 348 350 350 350 352 351 350 352 356 354 354 353 356 349 354 354 353 349 348 350
299 297 298 298 302 303 302 300 303 307 308 310 312 312 314 315 318 321 322 326 323 330 343 352 353 353 352 352 339 332 345 350 348 348 348 349 351 350 352 352 352 355 355 351 352 350 347 341 344
296 301 300 299 298 294 302 293 301 304 305 307 310 311 314 315 319 321 322 324 326 326 334 344 356 354 355 356 350 349 342 342 345 345 346 346 349 349 349 352 354 355 350 349 346 345 344 345 336
298 303 301 301 299 298 298 295 300 303 302 305 308 311 315 317 317 318 319 322 324 327 327 336 342 350 355 355 355 349 348 346 348 345 349 352 353 354 354 354 349 348 342 344 342 342 343 335 335
303 300 300 300 298 292 297 296 297 301 303 305 309 313 315 317 319 320 320 321 321 322 323 333 342 346 349 352 352 353 351 351 349 346 348 347 347 343 345 342 344 344 341 340 338 340 340 338 335
301 299 291 290 290 290 298 296 298 304 305 308 310 313 316 319 320 321 322 321 320 322 326 327 338 341 345 347 349 351 353 353 353 350 346 344 338 337 341 342 341 338 340 339 338 339 337 336 333
299 299 292 286 288 292 297 292 300 306 311 312 312 314 317 319 322 323 324 324 323 321 324 332 335 343 348 350 349 351 354 350 349 349 342 338 335 335 342 340 340 338 337 336 336 331 329 331 330
299 295 302 295 296 292 296 299 303 308 309 310 311 313 316 319 321 323 325 325 325 327 328 334 339 344 347 348 348 351 349 347 342 341 341 335 339 334 340 338 337 336 334 333 332 326 327 328 329
302 304 295 296 288 287 293 294 296 303 305 308 309 311 314 317 319 321 324 327 328 332 335 337 337 338 340 341 341 339 338 337 338 339 338 338 339 337 337 336 336 335 333 331 331 325 327 327 324
299 299 300 300 297 290 289 293 306 305 307 308 310 311 313 314 315 317 320 323 326 329 330 330 330 329 330 332 333 334 334 335 337 337 337 338 340 338 335 334 333 331 329 330 330 328 325 323 324
304 302 302 295 293 297 296 295 309 309 310 311 310 312 313 314 315 316 317 318 320 322 323 326 328 327 329 330 332 333 334 334 336 335 335 336 335 335 333 331 328 326 326 327 326 325 323 322 322
Wind_Speed
13 8 5 7 8 7 12 3 6 6 6 5 9 8 11 11 8 7 3 10 15 18 19 19 13 13 14 16 17 18 18 18 18 17 16 15 16 15 14 12 11 11 11 10 10 11 11 11 11
6 5 6 4 10 13 11 6 9 4 6 9 9 5 9 3 5 4 8 7 16 18 18 20 13 13 13 18 16 18 18 17 17 16 16 15 14 14 13 11 11 11 10 10 10 10 10 10 9
8 8 8 6 13 16 12 9 9 5 6 8 6 7 7 4 2 3 6 13 18 17 18 18 16 14 14 14 14 15 17 17 17 16 16 14 13 13 12 10 10 10 10 10 10 9 8 8 7
7 6 5 12 19 14 16 4 1 5 5 4 6 13 3 3 4 2 10 16 18 19 18 19 16 15 15 14 14 15 15 16 17 16 15 14 13 12 11 10 8 8 9 9 9 8 7 6 5
7 4 12 16 24 21 10 13 8 11 8 8 10 10 12 5 2 3 14 16 18 18 17 18 16 16 16 15 15 15 15 15 15 15 14 13 12 11 10 9 8 8 7 7 7 6 6 5 4
8 7 12 18 21 20 19 14 16 15 15 12 12 10 11 6 4 7 14 16 17 17 16 18 16 16 16 17 16 15 15 14 14 14 13 12 10 10 9 9 8 7 6 5 5 5 5 4 3
15 11 17 19 18 17 17 15 15 15 14 14 9 13 7 4 5 8 13 16 16 17 17 17 18 16 15 14 15 15 15 14 13 12 11 11 10 9 8 7 6 6 5 5 5 4 4 3 3
9 9 18 17 15 21 15 12 16 17 19 13 12 9 3 8 6 11 14 16 17 16 17 18 18 18 17 16 14 15 14 14 13 13 12 11 10 8 8 6 7 6 5 5 4 3 2 3 4
6 10 13 17 15 14 4 12 13 15 11 13 12 7 11 1 8 12 14 16 16 16 17 17 18 18 17 16 15 14 17 16 13 12 10 10 10 11 12 6 9 6 5 4 4 3 3 4 8
13 12 15 8 9 11 14 13 12 15 14 18 15 7 3 6 7 11 15 18 19 21 20 17 17 18 17 14 16 15 14 13 13 13 13 11 10 8 7 7 7 6 6 5 5 5 5 8 7
11 15 9 9 13 13 16 17 15 16 20 17 15 9 4 4 7 11 15 16 19 19 16 19 17 17 17 14 12 9 9 9 10 13 11 11 8 8 8 6 7 7 10 7 11 10 8 5 5
10 12 13 11 10 14 18 17 18 18 21 20 17 8 13 12 10 11 15 17 17 19 19 18 18 16 16 11 11 12 10 10 9 12 14 9 7 8 7 6 6 5 5 5 5 5 4 6 8
16 13 11 14 16 17 18 20 20 23 21 21 22 18 20 19 17 16 16 17 16 18 19 19 19 16 15 13 11 11 10 10 11 11 13 11 10 8 8 7 6 6 6 6 6 6 6 7 8
6 10 13 14 16 15 18 19 19 15 10 20 26 27 24 22 21 18 15 19 18 18 19 19 19 18 16 14 13 11 10 11 10 10 10 13 9 8 8 8 8 7 7 6 6 6 6 7 7
9 12 14 16 18 15 8 16 24 25 23 22 23 21 22 22 22 19 16 19 19 17 16 19 18 18 16 16 14 11 10 10 10 9 11 12 11 9 9 8 7 7 6 7 7 7 8 8 8
13 11 12 6 7 13 7 13 15 13 18 22 24 21 21 23 23 18 15 17 18 15 17 19 17 18 16 15 12 10 10 9 9 9 8 12 11 11 10 8 8 7 6 7 7 7 7 8 8
11 10 8 6 3 3 11 13 10 5 10 15 19 19 18 19 21 17 14 15 17 16 15 14 11 12 10 11 9 8 9 5 8 9 8 10 12 13 10 8 8 8 8 8 8 7 7 8 8
13 13 9 8 8 5 8 17 17 13 11 14 16 16 16 18 18 13 14 14 15 13 11 15 14 10 8 12 11 8 9 7 8 6 7 10 7 12 8 8 8 8 7 7 7 6 7 8 8
4 8 10 11 8 10 14 12 15 13 9 13 15 14 14 16 13 8 6 9 11 10 15 10 14 16 13 13 9 2 8 7 10 10 10 9 11 12 10 6 10 9 8 7 5 7 8 8 8
11 11 12 12 6 5 9 15 14 10 8 6 9 10 11 15 17 8 9 10 11 14 21 14 12 14 12 8 8 5 3 5 6 6 8 6 12 11 10 7 7 7 6 8 8 8 8 6 5
12 13 12 13 11 13 15 16 15 7 6 3 6 5 5 11 17 12 7 9 8 10 11 14 17 17 16 13 7 7 2 4 10 12 8 8 13 10 10 11 9 7 7 6 7 7 6 6 7
13 12 13 14 14 11 5 11 5 1 6 5 1 5 6 5 13 13 12 13 12 20 10 11 11 15 13 11 10 15 11 13 12 9 8 10 11 10 9 8 8 7 6 4 5 5 5 8 8
13 8 10 12 13 14 15 10 11 3 11 7 3 3 7 7 5 10 13 14 18 12 15 13 12 14 15 17 15 13 16 10 7 5 10 7 7 8 8 9 8 7 4 4 4 5 6 5 7
3 7 9 9 12 14 16 16 12 9 6 3 1 5 7 8 9 9 6 9 12 10 12 10 13 13 14 15 16 17 15 11 9 9 9 8 7 7 7 8 7 6 5 6 6 5 6 6 7
9 9 8 11 11 11 6 8 11 6 3 3 5 6 7 7 7 9 9 7 5 8 9 9 12 14 14 15 16 16 13 14 14 15 11 12 9 8 8 8 8 7 7 6 5 5 5 6 8
16 14 11 10 10 10 8 8 5 5 3 1 2 4 5 8 9 10 10 9 8 4 4 8 10 10 10 13 12 11 13 10 9 11 11 9 9 9 11 10 9 9 8 7 7 6 6 5 7
16 9 14 15 9 10 6 10 7 8 7 4 3 4 7 9 11 12 11 9 7 4 1 3 5 7 11 11 11 12 12 11 10 12 11 8 8 8 11 11 10 10 10 9 7 7 6 7 8
15 5 11 11 17 17 10 8 7 11 8 4 4 5 6 7 10 11 12 12 10 9 9 9 9 10 11 12 11 10 11 11 11 10 11 9 9 9 11 12 12 11 11 10 9 7 9 9 8
9 11 11 9 6 10 11 2 11 8 3 3 3 5 5 7 8 9 11 11 11 12 12 11 10 10 10 10 9 9 8 8 9 8 8 8 8 9 10 11 11 12 12 11 11 11 10 11 11
6 9 7 9 13 8 10 6 5 4 2 2 4 4 5 4 6 8 8 9 9 9 9 9 7 8 7 6 6 7 7 6 5 5 5 5 7 8 10 11 13 13 13 13 13 14 13 14 14
Wind_Direction
263 251 265 253 249 232 253 209 311 203 184 23 314 299 318 303 295 7 49 158 146 149 148 160 151 151 150 152 153 152 150 151 150 151 152 152 151 143 144 150 151 147 143 142 144 140 136 133 132
279 233 226 267 252 236 232 205 222 206 30 320 300 303 289 341 14 77 137 160 152 145 151 158 149 148 149 162 153 150 149 149 149 150 151 153 150 144 149 155 153 151 150 152 151 146 143 140 140
243 234 245 229 241 246 254 152 234 254 316 332 305 334 324 7 72 30 70 159 155 155 157 145 149 149 148 150 152 148 146 147 147 150 151 153 150 148 153 158 155 159 159 160 160 154 151 145 147
191 189 235 243 241 234 260 166 136 246 261 296 317 301 270 45 322 12 141 162 156 160 159 137 149 149 148 151 150 146 145 145 148 151 154 154 154 154 156 156 160 163 164 167 166 161 158 155 153
210 238 237 228 243 250 206 273 290 276 283 275 314 291 289 135 311 153 158 166 167 160 161 156 154 151 151 154 154 149 148 148 152 153 157 157 155 157 157 157 170 166 168 172 168 165 162 169 169
200 256 232 236 239 237 250 252 264 262 271 274 278 289 292 96 190 159 166 171 169 160 158 155 156 156 156 157 158 153 150 152 155 156 158 158 158 158 159 165 171 165 166 173 172 171 177 187 191
250 220 243 250 256 249 231 229 258 261 259 262 277 288 296 195 162 168 170 172 168 166 165 161 170 168 161 163 159 154 153 155 156 158 155 156 157 156 160 166 169 158 163 174 179 179 181 193 216
253 262 255 242 254 255 245 226 247 252 260 261 268 253 226 32 164 169 177 174 176 174 172 171 174 175 180 173 164 159 158 161 161 161 160 161 156 159 168 163 173 167 177 184 187 188 202 229 238
247 244 243 241 242 255 210 253 254 267 266 249 260 299 349 71 178 183 177 180 183 181 177 180 177 174 183 176 174 171 170 169 165 165 162 160 192 179 172 164 138 174 191 196 195 194 211 239 233
217 232 246 263 280 260 271 257 267 270 253 240 237 161 90 129 190 212 195 186 188 186 183 183 184 176 182 178 172 190 182 185 187 185 178 205 200 189 217 140 162 191 195 204 203 207 224 232 249
213 250 256 230 247 259 267 266 259 253 254 245 246 196 191 205 207 224 225 205 196 189 189 188 185 180 190 185 174 187 183 186 188 189 188 202 184 182 202 193 192 205 191 220 190 191 219 232 273
242 228 254 252 256 253 259 266 263 256 258 270 255 294 287 264 241 235 230 220 203 193 194 191 186 187 196 186 185 185 188 186 189 191 188 191 200 190 208 206 204 206 207 214 220 223 236 238 243
233 250 249 252 257 255 265 266 269 262 264 269 273 275 268 269 260 260 238 234 211 203 198 194 189 191 192 199 189 195 196 192 194 189 189 197 200 196 198 205 220 212 210 207 225 228 231 235 240
166 240 252 247 251 252 253 264 260 259 250 246 251 250 251 256 256 255 240 224 217 210 202 197 194 190 195 202 197 198 197 189 206 195 193 208 206 187 200 200 211 218 220 224 231 231 243 247 257
228 248 240 232 238 238 262 253 251 253 248 243 252 255 252 252 255 256 260 219 219 212 204 197 196 194 202 201 202 202 193 211 202 205 201 202 215 199 220 213 214 216 217 232 231 235 232 245 247
222 228 243 145 216 215 209 284 284 254 225 233 246 251 248 248 249 250 252 217 216 218 208 198 190 194 199 204 203 211 205 202 206 211 195 205 207 225 207 227 218 215 217 226 238 238 242 247 251
201 241 197 235 68 144 211 287 307 297 247 229 235 245 242 245 242 249 242 216 206 210 202 206 196 191 198 220 213 206 206 209 211 208 201 199 211 209 222 226 225 220 223 228 235 245 247 258 257
214 212 213 236 140 214 244 264 277 275 242 233 236 244 236 235 238 250 217 210 212 201 198 193 192 159 165 238 220 223 217 185 204 195 189 195 212 215 209 210 231 225 241 245 245 242 253 267 279
263 252 251 259 261 273 275 274 287 287 255 242 234 243 228 227 226 196 187 186 169 168 207 158 170 183 187 208 185 205 255 234 206 212 203 203 200 220 213 173 203 225 227 228 236 242 236 253 249
239 252 253 267 270 258 266 293 283 267 266 269 231 222 221 213 214 204 171 171 193 207 205 176 181 192 164 186 163 159 140 238 259 215 189 142 264 209 214 215 206 207 208 215 218 226 254 253 268
229 249 259 268 269 279 259 267 251 212 232 259 276 263 216 215 223 222 216 180 154 263 217 209 199 196 200 200 163 151 180 213 221 210 209 209 205 209 207 203 214 200 230 222 199 198 216 255 238
243 229 248 268 266 260 181 274 141 226 279 206 60 23 8 264 218 240 250 225 183 205 203 232 227 197 203 206 200 180 197 196 210 209 194 186 192 206 206 215 215 207 208 216 202 210 246 218 263
254 254 258 254 252 259 243 244 267 154 240 184 168 8 12 354 303 278 268 246 230 211 212 192 214 210 207 192 202 191 211 215 170 187 180 183 169 199 194 189 184 187 219 186 234 200 221 247 260
170 240 229 252 251 239 241 244 248 222 221 145 115 10 12 355 331 321 265 261 267 266 248 216 185 203 194 195 199 209 201 203 167 185 175 167 156 177 187 172 170 177 204 201 208 212 226 259 287
213 235 225 214 217 242 222 228 247 69 109 337 337 350 8 0 10 353 348 318 245 238 240 234 215 194 186 193 194 196 186 188 185 171 176 165 173 174 167 181 181 187 204 199 216 208 248 249 268
210 227 249 236 238 230 141 226 224 95 113 91 24 6 8 20 21 16 15 1 341 293 260 245 220 205 184 186 180 175 179 185 187 176 163 175 172 179 169 186 188 198 197 202 203 220 237 267 255
218 227 249 279 268 286 260 165 197 168 163 158 98 66 45 39 31 29 35 41 46 57 229 227 205 179 182 171 160 171 169 168 165 159 168 169 180 170 177 188 192 200 204 212 211 243 241 249 251
244 250 205 225 255 245 230 223 275 171 175 149 122 77 66 59 57 54 46 47 58 77 94 102 119 122 131 138 142 148 153 158 161 169 187 173 180 189 183 196 201 207 215 220 220 243 228 237 247
181 223 234 295 276 254 262 303 25 60 105 163 121 99 83 74 67 65 64 62 55 79 88 93 100 108 126 133 134 143 149 152 164 179 186 185 189 201 203 211 216 223 227 227 227 242 254 239 239
276 283 280 221 247 264 292 273 86 82 78 189 151 137 108 84 61 62 67 62 68 78 80 76 58 66 77 104 119 128 140 148 161 181 187 205 221 227 237 234 234 237 238 238 236 240 249 239 240